Flag for Vietnam Weather past 2 weeks in Ho Chi Minh, Vietnam

Now
68 °F

Passing clouds.


Feels Like: 68 °F
Forecast: 67 / 90 °F
Wind: 5 mph from East

Location: Ho Chi Minh

Current Time: Jan 26, 2015 at 5:51:58 AM

Latest Report: Jan 26, 2015 at 5:30 AM


Visibility: 4 mi

Pressure: 29.95 "Hg

Humidity: 94%

Dew point: 66 °F

Location of Ho Chi MinhLocation

Historic Weather in Ho Chi Minh — Graph

°F

Ho Chi Minh temperature yesterday

Maximum temperature yesterday: 90 °F (at 2:30 PM)
Minimum temperature yesterday: 68 °F (at 5:30 AM)
Average temperature yesterday: 77 °F

Past Weeks' High & Low Weather Summary

 TemperatureHumidityPressure
High90 °F (Jan 13, 1:00 PM)94% (Jan 16, 4:30 AM)30.07 "Hg (Jan 16, 4:30 AM)
Low64 °F (Jan 15, 6:00 AM)26% (Jan 15, 2:30 PM)29.77 "Hg (Jan 12, 3:30 PM)
Average78 °F66%29.93 "Hg
* Reported Jan 11 5:00 AM — Jan 26 5:00 AM, Ho Chi Minh, Weather by CustomWeather, © 2014

Note: Actual official high and low records may vary slightly from our data, if they occured in-between our weather recording intervals... More about our weather records

Advertising

Ho Chi Minh weather history for previous 24 hours

 ConditionsComfort  
Time TempWeatherWind HumidityBarometerVisibility
5:00 AM
Jan 26
68 °FPassing clouds.3 mph94%29.95 "Hg4 mi
4:30 AM68 °FPassing clouds.3 mph88%29.95 "Hg4 mi
4:00 AM68 °FHaze.2 mph88%29.95 "Hg1 mi
3:30 AM70 °FClear.3 mph88%29.92 "Hg3 mi
3:00 AM70 °FClear.3 mph83%29.92 "Hg4 mi
2:30 AM70 °FClear.3 mph88%29.92 "Hg4 mi
2:00 AM72 °FPassing clouds.5 mph83%29.95 "Hg5 mi
1:30 AM73 °FPassing clouds.5 mph78%29.95 "Hg5 mi
1:00 AM73 °FPassing clouds.5 mph78%29.95 "Hg5 mi
12:30 AM73 °FPassing clouds.7 mph78%29.95 "Hg5 mi
12:00 AM73 °FPassing clouds.5 mph78%29.95 "Hg5 mi
11:30 PM
Jan 25
73 °FPassing clouds.5 mph78%29.95 "Hg5 mi
11:00 PM73 °FPassing clouds.5 mph78%29.95 "Hg5 mi
10:30 PM73 °FPassing clouds.8 mph78%29.98 "Hg5 mi
10:00 PM75 °FPassing clouds.7 mph69%29.98 "Hg5 mi
9:30 PM75 °FPassing clouds.7 mph69%29.98 "Hg5 mi
9:00 PM75 °FHeavy rain. Passing clouds.6 mph69%29.98 "Hg5 mi
8:30 PM75 °FPassing clouds.6 mph69%29.95 "Hg5 mi
8:00 PM75 °FPassing clouds.6 mph69%29.95 "Hg5 mi
7:30 PM77 °FPassing clouds.8 mph61%29.95 "Hg5 mi
7:00 PM77 °FPassing clouds.8 mph61%29.95 "Hg5 mi
6:30 PM77 °FPassing clouds.8 mph61%29.92 "Hg5 mi
6:00 PM79 °FPassing clouds.10 mph61%29.92 "HgN/A
5:30 PM79 °FPassing clouds.10 mph61%29.92 "HgN/A
5:00 PM81 °FPassing clouds.10 mph58%29.92 "HgN/A
4:30 PM82 °FPassing clouds.12 mph55%29.92 "HgN/A
4:00 PM84 °FPassing clouds.13 mph51%29.89 "HgN/A
3:30 PM90 °FPassing clouds.6 mph36%29.89 "HgN/A
3:00 PM88 °FPassing clouds.3 mph38%29.89 "HgN/A
2:30 PM90 °FPassing clouds.2 mph33%29.89 "HgN/A
2:00 PM88 °FPassing clouds.6 mph35%29.92 "HgN/A
1:30 PM88 °FPassing clouds.3 mph38%29.92 "Hg5 mi
1:00 PM88 °FPassing clouds.3 mph38%29.95 "Hg5 mi
12:30 PM88 °FPassing clouds.5 mph40%29.95 "Hg5 mi
12:00 PM84 °FSunny.2 mph43%29.98 "Hg10 mi
11:30 AM84 °FSunny.3 mph43%29.98 "Hg10 mi
11:00 AM84 °FClear.3 mph43%30.01 "Hg5 mi
10:30 AM82 °FClear.5 mph45%30.01 "Hg5 mi
10:00 AM81 °FClear.6 mph48%30.01 "Hg5 mi
9:30 AM79 °FClear.5 mph54%30.01 "Hg5 mi
9:00 AM77 °FClear.6 mph57%30.01 "Hg5 mi
8:30 AM75 °FClear.6 mph65%30.01 "Hg5 mi
8:00 AM73 °FClear.5 mph69%29.98 "Hg5 mi
7:30 AM72 °FClear.6 mph73%29.98 "Hg5 mi
7:00 AM72 °FClear.5 mph73%29.98 "Hg5 mi
6:30 AM70 °FClear.3 mph78%29.95 "Hg5 mi
6:00 AM68 °FPassing clouds.6 mph83%29.95 "Hg5 mi
5:30 AM68 °FPassing clouds.6 mph83%29.95 "Hg5 mi
5:00 AM70 °FPassing clouds.7 mph78%29.95 "Hg5 mi
Weather by CustomWeather, © 2014

See weather overviewHow to use our weather pages